RH
14 17 21 28 34 36 40 46 53 60 64 66 69 71 73 75 76 77 78 79 81 83 85 87 87 87 88 89 89 89 90 89 89 89 89 89 89 89 89 88 87 86
14 18 22 28 32 33 36 39 44 52 57 59 61 62 63 65 70 75 79 82 85 87 89 89 88 87 87 88 89 88 89 88 88 88 89 90 89 88 88 89 88 87
16 19 24 29 30 32 35 36 39 42 45 47 51 52 53 56 60 65 71 76 82 86 87 87 86 85 85 84 85 85 85 84 84 83 85 86 87 87 87 88 88 88
20 22 27 30 30 31 34 36 38 38 35 35 38 42 45 48 51 53 58 66 73 77 78 79 78 76 77 78 79 79 78 77 77 76 77 78 80 82 83 84 86 86
27 30 32 33 33 33 34 36 37 35 31 31 36 44 49 52 53 54 56 59 61 61 62 64 65 65 67 70 72 73 73 73 73 72 73 73 74 75 76 78 80 81
33 37 38 38 37 35 35 37 39 38 39 43 50 57 62 64 66 65 61 58 56 56 55 55 58 62 65 66 66 66 67 69 70 70 70 71 71 72 72 72 73 75
36 40 41 40 39 38 37 40 43 45 50 56 60 64 66 68 70 67 63 63 64 64 62 60 61 63 63 62 62 62 62 63 64 64 65 67 68 69 69 70 70 70
37 39 40 39 38 37 38 42 45 48 53 59 63 66 66 66 66 63 62 65 66 66 64 63 62 58 54 51 51 53 53 54 54 53 54 56 58 61 63 66 67 68
36 37 37 36 35 35 38 44 46 47 53 60 64 67 67 66 65 63 63 63 62 61 59 56 52 48 45 43 41 40 40 40 40 42 44 46 48 50 53 56 59 62
36 36 35 34 34 35 39 45 48 49 53 58 63 67 68 67 64 62 62 62 59 56 53 48 45 42 41 39 36 35 34 33 34 36 39 42 44 45 47 48 50 53
37 37 36 36 36 39 43 47 49 51 53 55 58 63 64 64 63 60 59 57 54 52 48 45 42 40 38 35 34 33 31 32 33 33 34 35 35 37 38 40 41 42
40 39 40 40 41 44 48 51 51 52 53 54 54 56 57 58 59 57 54 52 50 47 45 42 39 38 36 33 32 31 30 30 31 30 30 29 28 27 26 26 26 27
43 43 44 45 47 50 53 54 54 54 55 56 56 55 53 51 50 48 48 47 45 43 42 41 39 38 36 33 32 31 31 31 29 27 24 22 19 17 15 14 13 14
47 48 48 50 51 53 56 58 58 58 57 56 55 54 51 48 46 45 44 44 43 41 42 41 40 38 36 35 35 34 32 29 23 19 15 12 11 10 9 9 8 9
50 51 52 52 52 54 57 59 58 57 55 53 51 50 48 47 46 45 44 44 43 42 42 42 41 39 38 36 35 30 24 18 13 10 9 8 7 7 7 7 7 8
50 50 50 50 51 54 55 55 54 52 50 49 47 46 46 45 45 45 44 44 43 43 42 41 40 39 36 33 27 20 14 10 8 8 8 8 8 8 8 8 8 8
47 46 46 46 49 52 53 52 51 49 47 46 45 45 45 45 44 44 44 43 43 42 41 40 38 35 30 25 19 14 11 10 10 9 10 10 10 10 10 9 9 9
45 43 44 45 47 50 51 50 48 47 46 46 45 45 45 45 45 44 44 43 41 40 38 35 32 27 23 19 16 15 15 14 14 14 14 14 13 12 11 10 9 9
45 45 46 47 48 49 50 49 48 47 47 46 46 46 45 45 44 43 42 40 38 35 32 29 25 23 21 20 20 20 19 19 18 17 16 15 13 12 11 10 10 9
51 51 49 48 48 48 48 48 47 47 47 46 45 45 44 43 42 40 38 37 34 31 29 27 26 25 25 25 24 23 22 21 19 17 16 14 13 12 12 11 11 10
55 52 48 45 44 44 44 44 45 45 45 45 44 43 42 40 38 37 36 35 34 32 32 31 30 29 28 27 26 25 22 21 19 18 16 15 14 14 13 13 12 12
51 47 43 42 42 41 41 41 42 43 43 44 43 41 39 37 36 36 36 36 36 35 35 34 33 31 29 28 26 24 22 21 19 18 17 17 16 16 16 16 16 16
46 44 42 42 42 41 41 41 42 42 43 43 41 38 37 37 37 38 38 38 38 37 36 35 33 31 30 28 27 25 23 22 21 20 20 20 20 20 20 20 20 19
45 43 43 43 43 44 45 45 45 45 45 44 41 39 40 41 41 41 40 40 40 38 37 35 34 32 31 29 28 27 26 25 24 24 25 25 26 26 25 25 24 23
52 47 46 47 48 49 50 50 50 50 48 46 45 45 45 45 45 44 42 42 41 40 38 37 35 34 33 32 31 30 29 29 29 30 31 31 31 31 30 29 28 26
62 57 54 55 55 55 55 55 57 57 55 54 53 53 52 49 48 46 45 44 44 43 42 41 39 38 37 36 34 34 34 35 36 36 37 36 36 34 33 32 31 30